Dewpoint
52 52 52 51 51 51 51 51 50 50 49 49 48 48 48 48 46 32 34 40 40 46 44 27 28 29 31 34 36 36 36 34 31 29 27 29 32 33 41 41 40 38 39 51 54
52 52 51 51 51 51 50 50 50 50 49 49 48 49 48 48 34 25 41 47 46 47 31 27 28 30 28 30 35 35 32 32 30 36 37 36 37 34 34 42 38 38 44 50 52
52 51 50 50 50 50 50 49 48 47 48 47 47 49 47 43 23 23 43 46 47 42 30 32 31 31 30 30 31 32 30 25 27 33 37 39 38 36 36 37 37 37 41 48 52
51 50 50 50 50 50 49 47 47 46 47 46 48 46 46 32 15 23 44 46 45 33 29 30 29 30 29 25 30 32 29 29 28 28 31 32 38 38 37 37 44 49 50 50 51
50 50 50 49 49 49 48 47 47 45 46 46 47 46 34 19 21 27 42 38 28 28 28 29 29 30 28 28 29 30 31 33 30 31 30 32 32 35 37 40 48 48 49 50 51
50 49 49 49 49 49 47 47 46 45 47 46 45 44 24 19 25 27 27 26 27 28 29 31 30 32 32 30 30 32 34 35 29 29 33 32 31 36 36 44 47 45 45 46 50
49 49 49 49 49 48 46 46 45 44 45 45 44 37 22 18 24 26 26 26 28 30 31 33 36 34 31 28 32 37 34 31 31 31 31 35 33 33 36 44 42 44 42 43 47
49 49 48 48 48 46 46 45 44 46 42 44 43 34 17 23 22 24 25 25 30 33 36 37 38 35 33 31 30 32 31 27 30 32 31 34 28 32 38 43 43 41 42 40 43
48 48 48 48 47 44 45 43 41 43 45 44 26 27 11 25 17 24 24 24 29 32 36 33 34 32 29 27 24 25 21 22 25 33 32 33 31 35 39 40 43 41 40 42 44
48 48 48 47 45 44 43 40 38 32 29 27 21 19 6 15 21 25 22 27 29 28 28 31 31 28 27 28 21 20 21 23 28 33 34 31 30 33 39 39 40 40 42 41 44
47 48 48 46 42 43 37 26 16 17 22 17 22 14 12 18 23 19 21 27 29 24 24 28 26 25 24 27 26 25 21 22 25 35 32 28 29 35 39 41 41 40 41 42 44
47 48 47 45 41 41 35 31 33 35 17 19 20 21 14 18 15 17 20 27 25 18 25 23 21 22 23 27 26 22 23 20 22 26 27 29 29 30 37 36 39 40 42 43 46
47 47 46 43 42 35 32 32 36 38 24 6 13 13 14 17 14 14 19 22 25 14 23 22 22 24 22 24 26 21 23 22 21 22 29 28 29 31 33 38 41 41 43 44 48
47 45 44 37 29 34 30 34 37 36 28 3 4 10 14 14 3 12 20 22 18 15 22 22 21 25 22 21 25 22 27 27 24 24 24 28 22 29 33 37 38 39 41 45 49
47 41 43 38 29 29 33 36 38 29 18 5 8 13 15 11 10 6 21 18 16 13 13 12 18 25 24 24 25 23 28 30 26 27 26 26 27 28 32 32 36 37 41 46 49
46 38 38 32 31 31 35 29 26 28 9 9 10 10 11 10 10 12 20 15 17 12 12 10 12 25 25 26 27 28 32 28 24 29 23 24 26 24 24 26 29 37 42 45 49
45 37 31 27 24 32 33 29 31 23 7 3 6 11 11 8 7 10 23 20 15 12 13 13 11 18 22 21 23 27 29 23 20 23 20 25 27 27 29 30 32 34 37 45 48
42 39 33 27 30 35 25 31 20 8 9 10 10 9 7 11 9 9 16 15 17 18 14 14 12 12 16 23 23 26 28 22 8 17 18 27 25 27 29 32 32 35 40 44 48
40 31 27 28 29 28 27 25 12 11 12 10 10 4 4 9 12 13 11 16 16 19 14 17 10 13 18 24 24 24 26 31 24 21 20 22 26 24 26 28 30 32 34 36 42
32 27 23 29 28 25 33 18 14 14 14 14 9 10 6 9 12 12 11 17 18 17 19 21 15 13 18 25 25 25 25 25 26 18 14 21 22 22 25 26 29 31 32 34 36
30 22 22 28 28 27 25 18 16 14 15 14 11 12 10 13 11 10 11 9 17 17 18 23 18 19 20 24 23 24 26 27 27 24 21 19 21 30 28 29 28 30 31 33 38
28 38 28 25 30 28 22 18 16 13 15 14 15 13 12 10 12 12 9 10 15 16 21 23 20 17 20 25 29 25 24 23 21 21 25 22 22 31 30 29 28 28 29 32 37
28 24 28 27 30 23 17 15 15 13 13 12 12 14 14 11 12 8 9 11 16 18 24 25 19 17 14 24 19 19 19 21 26 26 24 23 22 28 29 29 27 26 28 30 33
35 36 34 32 27 17 14 12 12 16 15 14 14 12 14 12 12 12 11 13 16 18 25 23 20 17 14 18 22 19 19 21 25 23 23 24 23 21 23 26 26 26 27 29 31
32 27 21 25 23 19 18 15 10 10 15 15 13 12 13 13 13 12 12 14 16 21 20 22 17 18 16 18 20 20 20 21 24 21 22 23 20 20 23 26 27 27 26 27 29
33 29 27 24 17 18 16 16 10 12 13 11 13 12 13 15 14 13 15 16 17 20 19 21 18 17 16 23 20 17 16 19 18 17 20 24 22 22 24 24 25 27 25 25 27
29 26 26 22 18 18 17 17 14 17 14 14 14 15 13 14 16 17 18 18 19 21 19 19 18 16 15 15 20 19 16 17 18 18 18 15 20 23 21 22 25 26 26 26 26
Lifted_Index
15 15 15 15 15 15 15 15 15 15 15 15 15 14 14 14 15 15 14 13 12 11 10 9 8 7 6 4 2 1 1 0 0 0 1 1 1 1 0 0 0 1 1 -0 -1
15 15 15 15 15 15 15 15 15 15 15 15 15 14 14 15 16 15 14 13 12 10 9 9 8 7 6 4 3 2 1 1 0 0 1 1 1 0 0 0 0 0 0 -0 -0
15 15 15 15 15 15 15 15 15 15 15 15 14 14 15 15 16 15 14 12 11 10 9 8 8 7 6 5 3 2 2 1 1 1 1 1 1 0 0 0 -0 -1 -1 -0 0
15 15 15 15 15 15 15 16 16 15 15 15 14 15 16 16 15 15 14 12 11 9 9 8 7 7 6 6 4 3 2 2 1 1 1 2 1 1 0 0 -1 -1 -1 -0 0
15 15 15 15 15 15 16 16 15 15 15 14 15 16 16 16 16 15 14 13 11 9 8 8 7 6 6 6 5 4 2 2 1 1 1 2 2 1 0 -0 -1 -1 -1 -0 -0
15 15 15 15 15 15 16 16 15 15 14 14 15 16 17 16 16 16 15 13 11 9 8 7 7 6 6 5 5 3 2 1 1 1 1 1 2 1 0 -0 -0 -1 -1 -0 0
15 15 15 15 15 15 16 16 15 15 15 15 15 16 17 17 16 16 15 13 10 8 7 7 6 5 5 5 4 3 2 1 0 0 0 0 1 1 0 0 0 0 0 0 1
15 15 15 15 15 16 16 16 16 15 15 15 16 17 17 17 17 16 14 12 9 8 7 6 6 5 4 4 3 2 1 0 0 -0 -0 0 0 0 0 1 1 1 1 1 1
15 15 15 15 16 16 17 16 17 16 16 16 17 17 17 17 16 15 14 12 9 8 7 6 5 5 4 3 2 2 1 1 0 0 0 0 0 0 0 1 2 2 2 1 1
15 15 15 15 16 17 17 17 17 18 17 17 18 17 17 17 16 15 14 11 9 7 6 6 5 4 4 3 3 2 2 1 1 0 0 0 0 0 0 1 2 3 3 2 1
15 15 15 16 17 18 18 17 17 17 18 18 18 18 18 17 16 15 14 11 9 7 6 5 5 4 4 3 3 3 3 2 1 1 1 0 0 0 0 1 2 3 3 2 1
15 15 16 17 18 18 18 17 17 17 17 18 18 18 18 17 16 15 14 11 9 7 6 5 5 4 4 3 3 3 3 2 2 1 1 0 0 0 1 1 2 3 3 2 1
15 15 16 17 18 18 18 17 18 16 15 16 18 18 18 17 16 16 15 12 9 7 6 5 4 4 3 3 3 3 3 2 2 2 1 0 0 1 1 2 3 3 3 3 2
15 16 17 18 18 18 17 17 17 15 12 13 16 18 18 17 16 16 15 13 10 8 6 5 4 3 3 3 3 3 3 3 2 2 1 1 0 1 1 2 3 3 3 3 2
16 17 18 19 18 17 17 17 17 12 8 10 15 16 16 15 15 16 15 14 11 8 6 5 4 3 3 3 4 3 3 2 2 2 1 1 1 1 2 2 3 3 3 3 3
16 18 19 18 18 18 18 17 14 9 7 10 13 14 14 14 15 15 15 14 11 8 6 5 4 3 3 3 3 3 3 2 2 1 1 1 1 1 2 3 3 4 4 3 3
17 18 18 18 18 18 18 14 9 7 8 11 12 12 12 12 13 14 14 13 11 8 6 4 3 3 3 3 3 3 3 2 1 1 1 1 1 1 2 3 3 4 4 4 3
17 17 18 18 19 18 16 11 7 8 10 12 12 11 11 11 12 13 13 12 11 9 6 4 3 3 3 3 3 3 3 2 1 0 1 1 1 1 2 3 3 4 4 3 3
16 17 17 18 19 17 13 9 8 10 12 12 12 10 10 11 12 12 13 12 12 10 7 4 2 3 3 3 2 3 3 2 1 1 0 1 1 1 1 2 2 3 3 3 3
15 15 16 18 18 16 12 9 10 13 14 13 11 10 9 10 11 12 12 13 12 11 8 5 3 2 2 2 2 2 2 2 2 1 0 1 1 1 1 2 2 2 3 3 3
13 13 16 18 16 13 11 11 13 15 15 14 12 10 9 10 10 11 12 12 12 11 8 5 3 2 2 2 2 2 2 2 2 1 1 1 1 2 2 2 2 2 3 3 3
12 13 16 16 14 12 11 12 14 15 15 14 13 12 11 10 11 11 12 12 11 9 7 5 3 2 2 2 2 2 2 2 2 2 1 1 2 3 3 3 2 2 2 2 2
12 12 15 15 12 11 12 13 14 15 15 14 14 13 12 11 11 12 12 11 10 9 7 5 3 2 2 2 2 2 2 2 2 2 1 1 2 3 3 3 2 2 2 2 2
12 12 13 13 12 12 12 12 13 14 14 14 14 13 12 11 11 11 11 10 9 8 7 5 3 2 2 2 2 2 2 2 2 2 2 2 2 3 3 3 2 2 2 2 2
12 12 12 12 12 12 12 12 12 12 14 14 13 12 11 10 11 11 10 9 8 8 7 5 3 3 3 2 2 2 2 2 2 2 2 2 2 3 4 3 3 3 2 2 1
13 13 12 12 12 12 12 12 12 12 13 13 12 11 11 11 11 10 9 9 8 7 6 4 3 3 3 3 2 2 2 2 2 2 3 2 3 4 4 4 4 4 3 2 1
14 14 13 12 12 12 12 12 12 12 13 13 12 11 11 12 12 11 9 8 7 7 6 4 3 2 2 3 2 2 2 3 2 3 3 2 3 4 5 5 4 4 3 2 2